Time,TemperatureF,DewpointF,PressureIn,WindDirection,WindDirectionDegrees,WindSpeedMPH,WindSpeedGustMPH,Humidity,HourlyPrecipIn,Conditions,Clouds,dailyrainin,SoftwareType,DateUTC
2013-04-14 00:00:00,74.7,68.1,29.91,South,173,0.0,8.0,80,0.00,,---,0.00,VWS V14.00,2013-04-14 10:00:00,
2013-04-14 00:05:00,74.7,68.1,29.91,South,173,0.0,2.0,80,0.00,,---,0.00,VWS V14.00,2013-04-14 10:05:00,
2013-04-14 00:10:00,74.6,67.7,29.92,South,173,0.0,4.0,79,0.00,,---,0.00,VWS V14.00,2013-04-14 10:10:00,
2013-04-14 00:15:00,74.4,67.5,29.91,South,174,7.0,8.0,79,0.00,,---,0.00,VWS V14.00,2013-04-14 10:15:00,
2013-04-14 00:20:00,74.4,67.1,29.91,South,174,1.0,8.0,78,0.00,,---,0.00,VWS V14.00,2013-04-14 10:20:00,
2013-04-14 00:25:00,74.5,67.2,29.90,South,174,5.0,8.0,78,0.00,,---,0.00,VWS V14.00,2013-04-14 10:25:00,
2013-04-14 00:30:00,74.5,66.8,29.90,SSE,162,2.0,8.0,77,0.00,,---,0.00,VWS V14.00,2013-04-14 10:30:00,
2013-04-14 00:35:00,74.6,66.9,29.90,SSE,163,4.0,7.0,77,0.00,,---,0.00,VWS V14.00,2013-04-14 10:35:00,
2013-04-14 00:40:00,74.9,66.8,29.90,South,175,0.0,8.0,76,0.00,,---,0.00,VWS V14.00,2013-04-14 10:40:00,
2013-04-14 00:45:00,74.9,66.8,29.90,South,175,2.0,8.0,76,0.00,,---,0.00,VWS V14.00,2013-04-14 10:45:00,
2013-04-14 00:50:00,75.0,66.9,29.90,South,175,0.0,8.0,76,0.00,,---,0.00,VWS V14.00,2013-04-14 10:50:00,
2013-04-14 00:55:00,75.1,66.6,29.89,South,175,0.0,8.0,75,0.00,,---,0.00,VWS V14.00,2013-04-14 10:55:00,
2013-04-14 01:00:00,75.2,66.7,29.89,South,175,1.0,8.0,75,0.00,,---,0.00,VWS V14.00,2013-04-14 11:00:00,
2013-04-14 01:05:00,75.3,66.8,29.89,South,175,0.0,1.0,75,0.00,,---,0.00,VWS V14.00,2013-04-14 11:05:00,
2013-04-14 01:10:00,75.3,66.4,29.89,South,175,2.0,6.0,74,0.00,,---,0.00,VWS V14.00,2013-04-14 11:10:00,
2013-04-14 01:15:00,75.3,66.8,29.88,South,175,2.0,6.0,75,0.00,,---,0.00,VWS V14.00,2013-04-14 11:15:00,
2013-04-14 01:20:00,75.3,66.8,29.88,South,173,4.0,8.0,75,0.00,,---,0.00,VWS V14.00,2013-04-14 11:20:00,
2013-04-14 01:25:00,75.2,66.7,29.88,South,186,3.0,10.0,75,0.00,,---,0.00,VWS V14.00,2013-04-14 11:25:00,
2013-04-14 01:30:00,75.4,66.9,29.88,South,188,2.0,10.0,75,0.00,,---,0.00,VWS V14.00,2013-04-14 11:30:00,
2013-04-14 01:35:00,75.4,66.9,29.88,South,188,0.0,3.0,75,0.00,,---,0.00,VWS V14.00,2013-04-14 11:35:00,
2013-04-14 01:40:00,75.3,66.8,29.88,South,188,6.0,7.0,75,0.00,,---,0.00,VWS V14.00,2013-04-14 11:40:00,
2013-04-14 01:45:00,75.3,66.8,29.89,South,180,2.0,7.0,75,0.00,,---,0.00,VWS V14.00,2013-04-14 11:45:00,
2013-04-14 01:50:00,75.3,66.8,29.89,South,186,4.0,9.0,75,0.00,,---,0.00,VWS V14.00,2013-04-14 11:50:00,
2013-04-14 01:55:00,75.4,66.9,29.88,SSW,192,1.0,9.0,75,0.00,,---,0.00,VWS V14.00,2013-04-14 11:55:00,
2013-04-14 02:00:00,75.4,66.5,29.89,South,191,5.0,9.0,74,0.00,,---,0.00,VWS V14.00,2013-04-14 12:00:00,
2013-04-14 02:05:00,75.5,65.8,29.88,South,189,4.0,12.0,72,0.00,,---,0.00,VWS V14.00,2013-04-14 12:05:00,
2013-04-14 02:10:00,75.7,66.0,29.88,SSW,196,3.0,12.0,72,0.00,,---,0.00,VWS V14.00,2013-04-14 12:10:00,
2013-04-14 02:15:00,75.8,65.7,29.88,SSW,192,3.0,12.0,71,0.00,,---,0.00,VWS V14.00,2013-04-14 12:15:00,
2013-04-14 02:20:00,76.0,65.9,29.88,South,175,4.0,12.0,71,0.00,,---,0.00,VWS V14.00,2013-04-14 12:20:00,
2013-04-14 02:25:00,76.1,66.0,29.88,South,178,0.0,12.0,71,0.00,,---,0.00,VWS V14.00,2013-04-14 12:25:00,
2013-04-14 02:30:00,76.0,65.9,29.88,SSE,159,7.0,12.0,71,0.00,,---,0.00,VWS V14.00,2013-04-14 12:30:00,
2013-04-14 02:35:00,76.0,65.9,29.88,SSE,162,4.0,6.0,71,0.00,,---,0.00,VWS V14.00,2013-04-14 12:35:00,
2013-04-14 02:40:00,76.0,66.3,29.88,SSE,163,0.0,6.0,72,0.00,,---,0.00,VWS V14.00,2013-04-14 12:40:00,
2013-04-14 02:45:00,76.0,66.3,29.88,SSE,163,2.0,6.0,72,0.00,,---,0.00,VWS V14.00,2013-04-14 12:45:00,
2013-04-14 02:50:00,75.9,66.6,29.88,SSE,163,7.0,7.0,73,0.00,,---,0.00,VWS V14.00,2013-04-14 12:50:00,
2013-04-14 02:55:00,75.8,66.1,29.87,South,174,0.0,10.0,72,0.00,,---,0.00,VWS V14.00,2013-04-14 12:55:00,
2013-04-14 03:00:00,75.9,66.2,29.88,South,174,2.0,10.0,72,0.00,,---,0.00,VWS V14.00,2013-04-14 13:00:00,
2013-04-14 03:05:00,75.8,66.1,29.87,SSW,194,0.0,5.0,72,0.00,,---,0.00,VWS V14.00,2013-04-14 13:05:00,
2013-04-14 03:10:00,75.9,65.8,29.87,SSW,194,3.0,6.0,71,0.00,,---,0.00,VWS V14.00,2013-04-14 13:10:00,
2013-04-14 03:15:00,75.9,66.2,29.87,SSW,194,5.0,6.0,72,0.00,,---,0.00,VWS V14.00,2013-04-14 13:15:00,
2013-04-14 03:20:00,75.8,66.5,29.87,SSE,157,4.0,9.0,73,0.00,,---,0.00,VWS V14.00,2013-04-14 13:20:00,
2013-04-14 03:25:00,75.7,66.8,29.86,South,171,4.0,9.0,74,0.00,,---,0.00,VWS V14.00,2013-04-14 13:25:00,
2013-04-14 03:30:00,75.6,66.7,29.87,South,173,4.0,9.0,74,0.00,,---,0.00,VWS V14.00,2013-04-14 13:30:00,
2013-04-14 03:35:00,75.5,66.2,29.87,SSE,167,5.0,5.0,73,0.00,,---,0.00,VWS V14.00,2013-04-14 13:35:00,
2013-04-14 03:40:00,75.6,66.3,29.87,South,190,1.0,11.0,73,0.00,,---,0.00,VWS V14.00,2013-04-14 13:40:00,
2013-04-14 03:45:00,75.7,66.4,29.87,South,190,2.0,11.0,73,0.00,,---,0.00,VWS V14.00,2013-04-14 13:45:00,
2013-04-14 03:50:00,75.7,66.0,29.87,South,178,4.0,14.0,72,0.00,,---,0.00,VWS V14.00,2013-04-14 13:50:00,
2013-04-14 03:55:00,75.7,66.0,29.87,South,178,0.0,14.0,72,0.00,,---,0.00,VWS V14.00,2013-04-14 13:55:00,
2013-04-14 04:00:00,75.6,65.9,29.87,South,177,4.0,14.0,72,0.00,,---,0.00,VWS V14.00,2013-04-14 14:00:00,
2013-04-14 04:05:00,75.6,65.5,29.87,South,184,0.0,8.0,71,0.00,,---,0.00,VWS V14.00,2013-04-14 14:05:00,
2013-04-14 04:10:00,75.7,65.6,29.87,South,184,3.0,8.0,71,0.00,,---,0.00,VWS V14.00,2013-04-14 14:10:00,
2013-04-14 04:15:00,75.7,66.0,29.87,SE,135,1.0,8.0,72,0.00,,---,0.00,VWS V14.00,2013-04-14 14:15:00,
2013-04-14 04:20:00,75.7,66.4,29.87,SE,135,0.0,8.0,73,0.00,,---,0.00,VWS V14.00,2013-04-14 14:20:00,
2013-04-14 04:25:00,75.6,66.3,29.87,SE,141,1.0,10.0,73,0.00,,---,0.00,VWS V14.00,2013-04-14 14:25:00,
2013-04-14 04:30:00,75.5,66.6,29.87,SE,141,0.0,10.0,74,0.00,,---,0.00,VWS V14.00,2013-04-14 14:30:00,
2013-04-14 04:35:00,75.5,66.6,29.87,SE,141,4.0,6.0,74,0.00,,---,0.00,VWS V14.00,2013-04-14 14:35:00,
2013-04-14 04:40:00,75.4,66.5,29.87,SE,141,0.0,6.0,74,0.00,,---,0.00,VWS V14.00,2013-04-14 14:40:00,
2013-04-14 04:45:00,75.3,66.4,29.87,SE,141,0.0,6.0,74,0.00,,---,0.00,VWS V14.00,2013-04-14 14:45:00,
2013-04-14 04:50:00,75.3,66.4,29.87,SE,142,4.0,6.0,74,0.00,,---,0.00,VWS V14.00,2013-04-14 14:50:00,
2013-04-14 04:55:00,75.3,66.4,29.87,SE,142,5.0,6.0,74,0.00,,---,0.00,VWS V14.00,2013-04-14 14:55:00,
2013-04-14 05:00:00,75.4,66.5,29.87,SSE,163,1.0,8.0,74,0.00,,---,0.00,VWS V14.00,2013-04-14 15:00:00,
2013-04-14 05:05:00,75.5,66.2,29.87,South,179,8.0,9.0,73,0.00,,---,0.00,VWS V14.00,2013-04-14 15:05:00,
2013-04-14 05:10:00,75.6,66.7,29.86,South,177,5.0,9.0,74,0.00,,---,0.00,VWS V14.00,2013-04-14 15:10:00,
2013-04-14 05:15:00,75.6,67.1,29.87,SE,138,4.0,9.0,75,0.00,,---,0.00,VWS V14.00,2013-04-14 15:15:00,
2013-04-14 05:20:00,75.5,66.6,29.87,SE,144,1.0,9.0,74,0.00,,---,0.00,VWS V14.00,2013-04-14 15:20:00,
2013-04-14 05:25:00,75.5,67.0,29.87,SE,144,0.0,9.0,75,0.00,,---,0.00,VWS V14.00,2013-04-14 15:25:00,
2013-04-14 05:30:00,75.5,67.4,29.87,SE,144,0.0,9.0,76,0.00,,---,0.00,VWS V14.00,2013-04-14 15:30:00,
2013-04-14 05:35:00,75.5,67.0,29.87,SE,144,0.0,0.0,75,0.00,,---,0.00,VWS V14.00,2013-04-14 15:35:00,
2013-04-14 05:40:00,75.5,67.4,29.87,SE,144,5.0,5.0,76,0.00,,---,0.00,VWS V14.00,2013-04-14 15:40:00,
2013-04-14 05:45:00,75.3,66.8,29.87,SSE,159,8.0,9.0,75,0.00,,---,0.00,VWS V14.00,2013-04-14 15:45:00,
2013-04-14 05:50:00,75.3,66.4,29.87,SSW,192,0.0,10.0,74,0.00,,---,0.00,VWS V14.00,2013-04-14 15:50:00,
2013-04-14 05:55:00,75.4,66.5,29.87,SSW,192,5.0,10.0,74,0.00,,---,0.00,VWS V14.00,2013-04-14 15:55:00,
2013-04-14 06:00:00,75.5,66.2,29.87,SSW,192,0.0,10.0,73,0.00,,---,0.00,VWS V14.00,2013-04-14 16:00:00,
2013-04-14 06:05:00,75.5,65.8,29.87,East,84,5.0,7.0,72,0.00,,---,0.00,VWS V14.00,2013-04-14 16:05:00,
2013-04-14 06:10:00,75.6,65.9,29.88,NE,55,0.0,7.0,72,0.00,,---,0.00,VWS V14.00,2013-04-14 16:10:00,
2013-04-14 06:15:00,75.7,66.4,29.88,NE,55,2.0,7.0,73,0.00,,---,0.00,VWS V14.00,2013-04-14 16:15:00,
2013-04-14 06:20:00,75.7,65.6,29.88,WSW,252,3.0,7.0,71,0.00,,---,0.00,VWS V14.00,2013-04-14 16:20:00,
2013-04-14 06:25:00,75.8,65.7,29.88,SSW,198,2.0,7.0,71,0.00,,---,0.00,VWS V14.00,2013-04-14 16:25:00,
2013-04-14 06:30:00,75.9,66.2,29.88,SSW,198,0.0,7.0,72,0.00,,---,0.00,VWS V14.00,2013-04-14 16:30:00,
2013-04-14 06:35:00,75.9,66.2,29.88,SSW,198,1.0,2.0,72,0.00,,---,0.00,VWS V14.00,2013-04-14 16:35:00,
2013-04-14 06:40:00,75.8,66.5,29.88,SSW,198,0.0,3.0,73,0.00,,---,0.00,VWS V14.00,2013-04-14 16:40:00,
2013-04-14 06:45:00,75.8,66.5,29.88,SSW,198,1.0,3.0,73,0.00,,---,0.00,VWS V14.00,2013-04-14 16:45:00,
2013-04-14 06:49:00,75.6,66.3,29.89,SSW,198,1.0,4.0,73,0.00,,---,0.00,VWS V14.00,2013-04-14 16:49:00,
2013-04-14 06:54:00,75.6,66.3,29.89,SSW,198,1.0,4.0,73,0.00,,---,0.00,VWS V14.00,2013-04-14 16:54:00,
2013-04-14 06:59:00,75.6,66.7,29.89,SSW,198,2.0,4.0,74,0.00,,---,0.00,VWS V14.00,2013-04-14 16:59:00,
2013-04-14 07:04:00,75.5,66.6,29.89,SSW,198,2.0,3.0,74,0.00,,---,0.00,VWS V14.00,2013-04-14 17:04:00,
2013-04-14 07:09:00,75.5,66.6,29.89,SSW,198,0.0,3.0,74,0.00,,---,0.00,VWS V14.00,2013-04-14 17:09:00,
2013-04-14 07:14:00,75.5,66.6,29.89,SSW,198,2.0,3.0,74,0.00,,---,0.00,VWS V14.00,2013-04-14 17:14:00,
2013-04-14 07:19:00,75.5,66.2,29.89,SSW,201,0.0,5.0,73,0.00,,---,0.00,VWS V14.00,2013-04-14 17:19:00,
2013-04-14 07:24:00,75.7,66.4,29.89,SSW,193,0.0,5.0,73,0.00,,---,0.00,VWS V14.00,2013-04-14 17:24:00,
2013-04-14 07:29:00,75.8,66.5,29.89,SSW,193,0.0,5.0,73,0.00,,---,0.00,VWS V14.00,2013-04-14 17:29:00,
2013-04-14 07:34:00,76.0,66.7,29.89,SSW,193,2.0,3.0,73,0.00,,---,0.00,VWS V14.00,2013-04-14 17:34:00,
2013-04-14 07:39:00,76.3,66.6,29.90,SSW,192,0.0,8.0,72,0.00,,---,0.00,VWS V14.00,2013-04-14 17:39:00,
2013-04-14 07:44:00,76.5,66.8,29.90,SSW,192,1.0,8.0,72,0.00,,---,0.00,VWS V14.00,2013-04-14 17:44:00,
2013-04-14 07:49:00,76.7,67.0,29.90,SSW,192,2.0,8.0,72,0.00,,---,0.00,VWS V14.00,2013-04-14 17:49:00,
2013-04-14 07:54:00,76.9,66.4,29.90,South,185,6.0,14.0,70,0.00,,---,0.00,VWS V14.00,2013-04-14 17:54:00,
2013-04-14 07:59:00,76.9,66.0,29.90,SSW,196,4.0,14.0,69,0.00,,---,0.00,VWS V14.00,2013-04-14 17:59:00,
2013-04-14 08:04:00,76.9,66.0,29.90,South,190,2.0,7.0,69,0.00,,---,0.00,VWS V14.00,2013-04-14 18:04:00,
2013-04-14 08:09:00,77.1,66.6,29.90,South,171,1.0,7.0,70,0.00,,---,0.00,VWS V14.00,2013-04-14 18:09:00,
2013-04-14 08:14:00,77.3,66.8,29.90,ENE,76,3.0,7.0,70,0.00,,---,0.00,VWS V14.00,2013-04-14 18:14:00,
2013-04-14 08:19:00,77.3,66.3,29.90,South,169,6.0,11.0,69,0.00,,---,0.00,VWS V14.00,2013-04-14 18:19:00,
2013-04-14 08:24:00,77.3,66.3,29.90,SSE,155,5.0,11.0,69,0.00,,---,0.00,VWS V14.00,2013-04-14 18:24:00,
2013-04-14 08:29:00,77.4,66.4,29.90,South,172,5.0,11.0,69,0.00,,---,0.00,VWS V14.00,2013-04-14 18:29:00,
2013-04-14 08:34:00,77.3,66.3,29.91,South,185,3.0,12.0,69,0.00,,---,0.00,VWS V14.00,2013-04-14 18:34:00,
2013-04-14 08:39:00,77.3,66.3,29.91,SSE,161,2.0,12.0,69,0.00,,---,0.00,VWS V14.00,2013-04-14 18:39:00,
2013-04-14 08:44:00,77.3,66.3,29.91,South,173,6.0,12.0,69,0.00,,---,0.00,VWS V14.00,2013-04-14 18:44:00,
2013-04-14 08:49:00,77.6,66.6,29.91,South,171,1.0,12.0,69,0.00,,---,0.00,VWS V14.00,2013-04-14 18:49:00,
2013-04-14 08:54:00,78.2,66.8,29.90,SW,236,2.0,12.0,68,0.00,,---,0.00,VWS V14.00,2013-04-14 18:54:00,
2013-04-14 08:59:00,78.7,66.8,29.90,South,178,5.0,13.0,67,0.00,,---,0.00,VWS V14.00,2013-04-14 18:59:00,
2013-04-14 09:04:00,78.9,67.4,29.90,SSW,194,3.0,7.0,68,0.00,,---,0.00,VWS V14.00,2013-04-14 19:04:00,
2013-04-14 09:09:00,79.4,66.6,29.91,SSW,198,10.0,10.0,65,0.00,,---,0.00,VWS V14.00,2013-04-14 19:09:00,
2013-04-14 09:14:00,79.5,66.7,29.91,SW,214,1.0,11.0,65,0.00,,---,0.00,VWS V14.00,2013-04-14 19:14:00,
2013-04-14 09:19:00,79.4,66.6,29.91,South,190,8.0,11.0,65,0.00,,---,0.00,VWS V14.00,2013-04-14 19:19:00,
2013-04-14 09:24:00,79.3,66.5,29.90,SW,236,3.0,11.0,65,0.00,,---,0.00,VWS V14.00,2013-04-14 19:24:00,
2013-04-14 09:29:00,79.5,66.7,29.90,SSW,199,13.0,13.0,65,0.00,,---,0.00,VWS V14.00,2013-04-14 19:29:00,
2013-04-14 09:34:00,79.9,66.7,29.90,SW,222,3.0,10.0,64,0.00,,---,0.00,VWS V14.00,2013-04-14 19:34:00,
2013-04-14 09:39:00,80.3,67.5,29.90,SW,236,7.0,11.0,65,0.00,,---,0.00,VWS V14.00,2013-04-14 19:39:00,
2013-04-14 09:44:00,80.2,66.0,29.91,South,189,4.0,11.0,62,0.00,,---,0.00,VWS V14.00,2013-04-14 19:44:00,
2013-04-14 09:49:00,79.9,66.2,29.90,SW,216,6.0,13.0,63,0.00,,---,0.00,VWS V14.00,2013-04-14 19:49:00,
2013-04-14 09:54:00,80.0,66.7,29.91,SSW,206,2.0,13.0,64,0.00,,---,0.00,VWS V14.00,2013-04-14 19:54:00,
2013-04-14 09:59:00,80.5,67.2,29.91,SW,232,6.0,13.0,64,0.00,,---,0.00,VWS V14.00,2013-04-14 19:59:00,
2013-04-14 10:04:00,80.6,66.4,29.91,SSW,196,3.0,6.0,62,0.00,,---,0.00,VWS V14.00,2013-04-14 20:04:00,
2013-04-14 10:09:00,80.7,66.9,29.91,South,187,3.0,7.0,63,0.00,,---,0.00,VWS V14.00,2013-04-14 20:09:00,
2013-04-14 10:14:00,80.6,66.8,29.91,West,265,3.0,8.0,63,0.00,,---,0.00,VWS V14.00,2013-04-14 20:14:00,
2013-04-14 10:19:00,80.6,66.4,29.91,SW,236,5.0,11.0,62,0.00,,---,0.00,VWS V14.00,2013-04-14 20:19:00,
2013-04-14 10:24:00,80.8,66.6,29.91,WSW,238,4.0,11.0,62,0.00,,---,0.00,VWS V14.00,2013-04-14 20:24:00,
2013-04-14 10:29:00,81.4,66.7,29.91,SSW,193,1.0,11.0,61,0.00,,---,0.00,VWS V14.00,2013-04-14 20:29:00,
2013-04-14 10:34:00,81.5,66.3,29.91,SSW,207,3.0,11.0,60,0.00,,---,0.00,VWS V14.00,2013-04-14 20:34:00,
2013-04-14 10:39:00,81.4,66.7,29.91,SW,234,1.0,11.0,61,0.00,,---,0.00,VWS V14.00,2013-04-14 20:39:00,
2013-04-14 10:44:00,81.5,66.3,29.91,SSW,205,3.0,11.0,60,0.00,,---,0.00,VWS V14.00,2013-04-14 20:44:00,
2013-04-14 10:49:00,81.7,66.9,29.91,SSW,207,1.0,11.0,61,0.00,,---,0.00,VWS V14.00,2013-04-14 20:49:00,
2013-04-14 10:54:00,81.8,65.6,29.91,South,170,1.0,11.0,58,0.00,,---,0.00,VWS V14.00,2013-04-14 20:54:00,
2013-04-14 10:59:00,81.7,65.0,29.91,South,175,1.0,11.0,57,0.00,,---,0.00,VWS V14.00,2013-04-14 20:59:00,
2013-04-14 11:04:00,82.0,66.8,29.91,South,175,2.0,2.0,60,0.00,,---,0.00,VWS V14.00,2013-04-14 21:04:00,
2013-04-14 11:09:00,82.7,66.9,29.91,SSW,194,7.0,8.0,59,0.00,,---,0.00,VWS V14.00,2013-04-14 21:09:00,
2013-04-14 11:14:00,82.9,66.1,29.92,SSW,203,9.0,13.0,57,0.00,,---,0.00,VWS V14.00,2013-04-14 21:14:00,
2013-04-14 11:19:00,83.0,66.7,29.91,South,169,5.0,13.0,58,0.00,,---,0.00,VWS V14.00,2013-04-14 21:19:00,
2013-04-14 11:24:00,83.1,67.8,29.91,SW,219,2.0,13.0,60,0.00,,---,0.00,VWS V14.00,2013-04-14 21:24:00,
2013-04-14 11:29:00,83.1,66.3,29.91,SSW,202,3.0,13.0,57,0.00,,---,0.00,VWS V14.00,2013-04-14 21:29:00,
2013-04-14 11:34:00,82.7,66.4,29.91,South,171,1.0,6.0,58,0.00,,---,0.00,VWS V14.00,2013-04-14 21:34:00,
2013-04-14 11:39:00,82.4,67.1,29.91,SSW,201,3.0,10.0,60,0.00,,---,0.00,VWS V14.00,2013-04-14 21:39:00,
2013-04-14 11:44:00,82.3,67.0,29.91,WSW,244,5.0,12.0,60,0.00,,---,0.00,VWS V14.00,2013-04-14 21:44:00,
2013-04-14 11:49:00,82.3,66.6,29.91,SSW,200,1.0,12.0,59,0.00,,---,0.00,VWS V14.00,2013-04-14 21:49:00,
2013-04-14 11:54:00,82.3,66.6,29.91,SSW,196,1.0,12.0,59,0.00,,---,0.00,VWS V14.00,2013-04-14 21:54:00,
2013-04-14 11:59:00,82.8,66.5,29.91,SSW,205,2.0,13.0,58,0.00,,---,0.00,VWS V14.00,2013-04-14 21:59:00,
2013-04-14 12:04:00,82.5,67.2,29.91,South,182,12.0,12.0,60,0.00,,---,0.00,VWS V14.00,2013-04-14 22:04:00,
2013-04-14 12:09:00,82.3,67.5,29.91,SW,223,4.0,12.0,61,0.00,,---,0.00,VWS V14.00,2013-04-14 22:09:00,
2013-04-14 12:14:00,82.1,67.3,29.90,SSW,200,3.0,12.0,61,0.00,,---,0.00,VWS V14.00,2013-04-14 22:14:00,
2013-04-14 12:19:00,81.7,66.9,29.90,SW,231,0.0,12.0,61,0.00,,---,0.00,VWS V14.00,2013-04-14 22:19:00,
2013-04-14 12:24:00,81.9,67.1,29.90,SW,223,3.0,12.0,61,0.00,,---,0.00,VWS V14.00,2013-04-14 22:24:00,
2013-04-14 12:29:00,82.4,67.6,29.90,South,186,3.0,12.0,61,0.00,,---,0.00,VWS V14.00,2013-04-14 22:29:00,
2013-04-14 12:34:00,82.6,67.3,29.90,South,179,1.0,8.0,60,0.00,,---,0.00,VWS V14.00,2013-04-14 22:34:00,
2013-04-14 12:39:00,82.6,67.3,29.90,WSW,249,2.0,9.0,60,0.00,,---,0.00,VWS V14.00,2013-04-14 22:39:00,
2013-04-14 12:44:00,82.5,67.2,29.89,SW,216,3.0,11.0,60,0.00,,---,0.00,VWS V14.00,2013-04-14 22:44:00,
2013-04-14 12:49:00,82.1,66.8,29.89,South,174,1.0,11.0,60,0.00,,---,0.00,VWS V14.00,2013-04-14 22:49:00,
2013-04-14 12:54:00,81.9,67.6,29.89,South,181,2.0,11.0,62,0.00,,---,0.00,VWS V14.00,2013-04-14 22:54:00,
2013-04-14 12:59:00,81.6,67.8,29.88,South,183,5.0,11.0,63,0.00,,---,0.00,VWS V14.00,2013-04-14 22:59:00,
2013-04-14 13:04:00,81.4,67.6,29.89,South,190,4.0,5.0,63,0.00,,---,0.00,VWS V14.00,2013-04-14 23:04:00,
2013-04-14 13:09:00,81.1,66.9,29.89,SSW,196,5.0,14.0,62,0.00,,---,0.00,VWS V14.00,2013-04-14 23:09:00,
2013-04-14 13:14:00,81.5,67.2,29.88,SSW,209,2.0,14.0,62,0.00,,---,0.00,VWS V14.00,2013-04-14 23:14:00,
2013-04-14 13:19:00,82.1,67.3,29.89,SSE,167,4.0,14.0,61,0.00,,---,0.00,VWS V14.00,2013-04-14 23:19:00,
2013-04-14 13:24:00,82.5,67.2,29.89,South,175,1.0,14.0,60,0.00,,---,0.00,VWS V14.00,2013-04-14 23:24:00,
2013-04-14 13:29:00,82.9,68.1,29.88,SSW,196,3.0,14.0,61,0.00,,---,0.00,VWS V14.00,2013-04-14 23:29:00,
2013-04-14 13:34:00,82.7,66.9,29.88,SSE,163,4.0,7.0,59,0.00,,---,0.00,VWS V14.00,2013-04-14 23:34:00,
2013-04-14 13:39:00,82.3,67.5,29.88,SSW,213,2.0,9.0,61,0.00,,---,0.00,VWS V14.00,2013-04-14 23:39:00,
2013-04-14 13:44:00,82.1,67.8,29.88,WSW,250,1.0,10.0,62,0.00,,---,0.00,VWS V14.00,2013-04-14 23:44:00,
2013-04-14 13:49:00,82.1,67.8,29.88,WSW,250,1.0,10.0,62,0.00,,---,0.00,VWS V14.00,2013-04-14 23:49:00,
2013-04-14 13:54:00,82.7,68.8,29.87,SSW,202,5.0,10.0,63,0.00,,---,0.00,VWS V14.00,2013-04-14 23:54:00,
2013-04-14 13:59:00,82.9,68.1,29.87,WSW,257,10.0,10.0,61,0.00,,---,0.00,VWS V14.00,2013-04-14 23:59:00,
2013-04-14 14:04:00,82.9,67.1,29.87,South,176,4.0,7.0,59,0.00,,---,0.00,VWS V14.00,2013-04-15 00:04:00,
2013-04-14 14:09:00,82.7,67.9,29.87,SW,214,0.0,7.0,61,0.00,,---,0.00,VWS V14.00,2013-04-15 00:09:00,
2013-04-14 14:14:00,82.3,67.0,29.87,South,186,0.0,8.0,60,0.00,,---,0.00,VWS V14.00,2013-04-15 00:14:00,
2013-04-14 14:19:00,82.0,67.7,29.87,South,188,1.0,8.0,62,0.00,,---,0.00,VWS V14.00,2013-04-15 00:19:00,
2013-04-14 14:24:00,81.9,67.6,29.87,SW,224,3.0,8.0,62,0.00,,---,0.00,VWS V14.00,2013-04-15 00:24:00,
2013-04-14 14:29:00,81.7,67.4,29.87,SW,229,4.0,11.0,62,0.00,,---,0.00,VWS V14.00,2013-04-15 00:29:00,
2013-04-14 14:34:00,81.1,67.3,29.87,SSW,194,3.0,8.0,63,0.00,,---,0.00,VWS V14.00,2013-04-15 00:34:00,
2013-04-14 14:39:00,80.9,67.6,29.86,SSE,164,7.0,8.0,64,0.00,,---,0.00,VWS V14.00,2013-04-15 00:39:00,
2013-04-14 14:44:00,80.6,66.4,29.86,South,181,7.0,9.0,62,0.00,,---,0.00,VWS V14.00,2013-04-15 00:44:00,
2013-04-14 14:49:00,80.5,66.8,29.86,South,189,4.0,11.0,63,0.00,,---,0.00,VWS V14.00,2013-04-15 00:49:00,
2013-04-14 14:54:00,80.3,67.9,29.86,South,189,0.0,11.0,66,0.00,,---,0.00,VWS V14.00,2013-04-15 00:54:00,
2013-04-14 14:59:00,80.0,68.9,29.87,East,94,0.0,11.0,69,0.00,,---,0.00,VWS V14.00,2013-04-15 00:59:00,
2013-04-14 15:04:00,78.9,69.5,29.87,East,88,2.0,3.0,73,0.00,,---,0.01,VWS V14.00,2013-04-15 01:04:00,
2013-04-14 15:09:00,78.0,69.8,29.87,ENE,69,3.0,4.0,76,0.00,,---,0.01,VWS V14.00,2013-04-15 01:09:00,
2013-04-14 15:14:00,76.7,69.3,29.87,NNW,342,5.0,8.0,78,0.00,,---,0.01,VWS V14.00,2013-04-15 01:14:00,
2013-04-14 15:19:00,76.0,69.8,29.87,NNW,344,1.0,8.0,81,0.04,,---,0.02,VWS V14.00,2013-04-15 01:19:00,
2013-04-14 15:24:00,75.4,69.9,29.87,North,349,5.0,8.0,83,0.04,,---,0.03,VWS V14.00,2013-04-15 01:24:00,
2013-04-14 15:29:00,74.8,69.7,29.87,North,350,2.0,8.0,84,0.07,,---,0.03,VWS V14.00,2013-04-15 01:29:00,
2013-04-14 15:34:00,74.6,70.1,29.87,North,355,4.0,6.0,86,0.06,,---,0.03,VWS V14.00,2013-04-15 01:34:00,
2013-04-14 15:39:00,74.3,69.8,29.87,North,355,4.0,8.0,86,0.04,,---,0.03,VWS V14.00,2013-04-15 01:39:00,
2013-04-14 15:44:00,73.9,69.8,29.87,NNW,335,2.0,8.0,87,0.00,,---,0.03,VWS V14.00,2013-04-15 01:44:00,
2013-04-14 15:49:00,73.8,69.7,29.87,NE,40,2.0,8.0,87,0.00,,---,0.03,VWS V14.00,2013-04-15 01:49:00,
2013-04-14 15:54:00,73.5,69.4,29.87,North,10,2.0,8.0,87,0.20,,---,0.05,VWS V14.00,2013-04-15 01:54:00,
2013-04-14 15:59:00,73.4,69.6,29.87,North,10,0.0,8.0,88,0.10,,---,0.05,VWS V14.00,2013-04-15 01:59:00,
2013-04-14 16:04:00,73.4,70.0,29.87,North,10,2.0,4.0,89,0.05,,---,0.05,VWS V14.00,2013-04-15 02:04:00,
2013-04-14 16:09:00,73.5,70.1,29.87,North,10,0.0,4.0,89,0.05,,---,0.06,VWS V14.00,2013-04-15 02:09:00,
2013-04-14 16:14:00,73.2,69.4,29.87,North,9,4.0,6.0,88,0.05,,---,0.06,VWS V14.00,2013-04-15 02:14:00,
2013-04-14 16:19:00,72.6,69.2,29.87,North,9,0.0,6.0,89,0.04,,---,0.06,VWS V14.00,2013-04-15 02:19:00,
2013-04-14 16:24:00,72.6,69.2,29.87,North,9,1.0,6.0,89,0.00,,---,0.06,VWS V14.00,2013-04-15 02:24:00,
2013-04-14 16:29:00,72.4,68.7,29.87,North,9,3.0,6.0,88,0.00,,---,0.06,VWS V14.00,2013-04-15 02:29:00,
2013-04-14 16:34:00,72.2,68.8,29.87,North,9,0.0,0.0,89,0.00,,---,0.06,VWS V14.00,2013-04-15 02:34:00,
2013-04-14 16:39:00,72.4,69.3,29.87,North,9,0.0,1.0,90,0.00,,---,0.07,VWS V14.00,2013-04-15 02:39:00,
2013-04-14 16:44:00,72.5,69.1,29.87,North,9,0.0,3.0,89,0.00,,---,0.07,VWS V14.00,2013-04-15 02:44:00,
2013-04-14 16:49:00,72.3,68.9,29.87,North,9,1.0,3.0,89,0.00,,---,0.08,VWS V14.00,2013-04-15 02:49:00,
2013-04-14 16:54:00,72.2,68.8,29.87,North,9,0.0,3.0,89,0.05,,---,0.09,VWS V14.00,2013-04-15 02:54:00,
2013-04-14 16:59:00,72.0,68.6,29.88,North,9,0.0,3.0,89,0.12,,---,0.09,VWS V14.00,2013-04-15 02:59:00,
2013-04-14 17:04:00,72.1,68.7,29.87,North,9,0.0,0.0,89,0.06,,---,0.09,VWS V14.00,2013-04-15 03:04:00,
2013-04-14 17:09:00,72.0,68.6,29.88,North,9,0.0,1.0,89,0.04,,---,0.09,VWS V14.00,2013-04-15 03:09:00,
2013-04-14 17:14:00,72.0,68.9,29.88,North,9,0.0,2.0,90,0.04,,---,0.10,VWS V14.00,2013-04-15 03:14:00,
2013-04-14 17:19:00,72.1,68.7,29.88,North,9,0.0,2.0,89,0.04,,---,0.10,VWS V14.00,2013-04-15 03:19:00,
2013-04-14 17:24:00,72.0,68.6,29.88,North,9,0.0,2.0,89,0.06,,---,0.11,VWS V14.00,2013-04-15 03:24:00,
2013-04-14 17:29:00,71.7,68.0,29.88,NNE,12,2.0,5.0,88,0.06,,---,0.11,VWS V14.00,2013-04-15 03:29:00,
2013-04-14 17:34:00,71.5,68.1,29.88,NNE,12,0.0,0.0,89,0.05,,---,0.11,VWS V14.00,2013-04-15 03:34:00,
2013-04-14 17:39:00,71.5,68.1,29.89,NNE,12,1.0,3.0,89,0.04,,---,0.11,VWS V14.00,2013-04-15 03:39:00,
2013-04-14 17:44:00,71.3,67.6,29.89,NNE,23,0.0,4.0,88,0.00,,---,0.11,VWS V14.00,2013-04-15 03:44:00,
2013-04-14 17:49:00,71.2,67.5,29.89,NNE,24,0.0,4.0,88,0.00,,---,0.12,VWS V14.00,2013-04-15 03:49:00,
2013-04-14 17:54:00,71.1,67.4,29.90,NNE,24,0.0,4.0,88,0.00,,---,0.12,VWS V14.00,2013-04-15 03:54:00,
2013-04-14 17:59:00,71.3,67.6,29.90,NNE,24,1.0,4.0,88,0.00,,---,0.12,VWS V14.00,2013-04-15 03:59:00,
2013-04-14 18:00:00,71.3,67.6,29.89,NNE,24,0.0,4.0,88,0.00,,---,0.12,VWS V14.00,2013-04-15 04:00:00,
2013-04-14 18:05:00,71.4,67.7,29.90,NNE,24,2.0,3.0,88,0.00,,---,0.12,VWS V14.00,2013-04-15 04:05:00,
2013-04-14 18:10:00,71.5,67.8,29.90,NNE,24,0.0,3.0,88,0.00,,---,0.12,VWS V14.00,2013-04-15 04:10:00,
2013-04-14 18:15:00,71.5,68.1,29.90,NNE,24,2.0,5.0,89,0.00,,---,0.12,VWS V14.00,2013-04-15 04:15:00,
2013-04-14 18:20:00,71.5,68.1,29.91,NNE,24,0.0,5.0,89,0.00,,---,0.12,VWS V14.00,2013-04-15 04:20:00,
2013-04-14 18:25:00,71.5,68.1,29.91,NNE,24,0.0,5.0,89,0.00,,---,0.12,VWS V14.00,2013-04-15 04:25:00,
2013-04-14 18:30:00,71.6,68.2,29.90,NNE,24,0.0,5.0,89,0.00,,---,0.12,VWS V14.00,2013-04-15 04:30:00,
2013-04-14 18:35:00,71.6,68.2,29.91,NNE,24,0.0,2.0,89,0.00,,---,0.12,VWS V14.00,2013-04-15 04:35:00,
2013-04-14 18:40:00,71.5,68.4,29.91,NNE,24,0.0,2.0,90,0.00,,---,0.12,VWS V14.00,2013-04-15 04:40:00,
2013-04-14 18:45:00,71.5,68.4,29.91,NNE,24,0.0,2.0,90,0.00,,---,0.12,VWS V14.00,2013-04-15 04:45:00,
2013-04-14 18:50:00,71.4,68.3,29.91,NNE,24,0.0,2.0,90,0.00,,---,0.12,VWS V14.00,2013-04-15 04:50:00,
2013-04-14 18:55:00,71.3,68.2,29.91,NNE,24,0.0,2.0,90,0.00,,---,0.12,VWS V14.00,2013-04-15 04:55:00,
2013-04-14 19:00:00,71.3,68.5,29.91,NNE,24,0.0,2.0,91,0.00,,---,0.12,VWS V14.00,2013-04-15 05:00:00,
2013-04-14 19:05:00,71.4,68.6,29.92,NNE,24,0.0,1.0,91,0.00,,---,0.12,VWS V14.00,2013-04-15 05:05:00,
2013-04-14 19:10:00,71.4,68.6,29.92,NNE,24,1.0,4.0,91,0.00,,---,0.12,VWS V14.00,2013-04-15 05:10:00,
2013-04-14 19:15:00,71.4,68.6,29.92,NNE,24,0.0,4.0,91,0.00,,---,0.12,VWS V14.00,2013-04-15 05:15:00,
2013-04-14 19:20:00,71.5,68.7,29.93,NNE,24,0.0,4.0,91,0.00,,---,0.12,VWS V14.00,2013-04-15 05:20:00,
2013-04-14 19:25:00,71.3,68.2,29.93,NNE,24,0.0,4.0,90,0.00,,---,0.12,VWS V14.00,2013-04-15 05:25:00,
2013-04-14 19:30:00,71.0,67.9,29.93,NNE,24,0.0,4.0,90,0.22,,---,0.14,VWS V14.00,2013-04-15 05:30:00,
2013-04-14 19:35:00,70.9,67.8,29.93,NNE,24,0.0,2.0,90,0.17,,---,0.15,VWS V14.00,2013-04-15 05:35:00,
2013-04-14 19:40:00,70.7,67.9,29.93,NNE,24,0.0,2.0,91,0.13,,---,0.16,VWS V14.00,2013-04-15 05:40:00,
2013-04-14 19:45:00,70.6,67.8,29.93,NNE,24,0.0,2.0,91,0.11,,---,0.17,VWS V14.00,2013-04-15 05:45:00,
2013-04-14 19:50:00,70.6,67.8,29.93,NNE,24,0.0,2.0,91,0.24,,---,0.19,VWS V14.00,2013-04-15 05:50:00,
2013-04-14 19:55:00,70.6,67.8,29.93,NNE,24,0.0,2.0,91,0.22,,---,0.20,VWS V14.00,2013-04-15 05:55:00,
2013-04-14 20:00:00,70.6,67.8,29.94,NNE,24,0.0,3.0,91,0.15,,---,0.21,VWS V14.00,2013-04-15 06:00:00,
2013-04-14 20:05:00,70.6,67.8,29.94,NNE,24,2.0,3.0,91,0.07,,---,0.21,VWS V14.00,2013-04-15 06:05:00,
2013-04-14 20:10:00,70.4,67.7,29.94,NNE,24,0.0,3.0,91,0.06,,---,0.22,VWS V14.00,2013-04-15 06:10:00,
2013-04-14 20:15:00,70.4,68.0,29.94,NNE,24,0.0,3.0,92,0.30,,---,0.24,VWS V14.00,2013-04-15 06:15:00,
2013-04-14 20:20:00,70.3,67.9,29.94,NNE,24,0.0,3.0,92,0.16,,---,0.25,VWS V14.00,2013-04-15 06:20:00,
2013-04-14 20:25:00,70.0,67.3,29.94,NNE,24,0.0,3.0,91,0.07,,---,0.25,VWS V14.00,2013-04-15 06:25:00,
2013-04-14 20:30:00,69.7,67.0,29.94,NNE,24,2.0,4.0,91,0.04,,---,0.25,VWS V14.00,2013-04-15 06:30:00,
2013-04-14 20:35:00,69.5,67.1,29.94,NNE,24,0.0,1.0,92,0.00,,---,0.25,VWS V14.00,2013-04-15 06:35:00,
2013-04-14 20:40:00,69.5,67.1,29.95,NNE,24,0.0,2.0,92,0.00,,---,0.25,VWS V14.00,2013-04-15 06:40:00,
2013-04-14 20:45:00,69.4,67.0,29.95,NNE,24,0.0,2.0,92,0.00,,---,0.25,VWS V14.00,2013-04-15 06:45:00,
2013-04-14 20:50:00,69.4,67.0,29.95,NNE,24,0.0,2.0,92,0.00,,---,0.25,VWS V14.00,2013-04-15 06:50:00,
2013-04-14 20:55:00,69.4,67.0,29.95,NNE,24,0.0,2.0,92,0.00,,---,0.25,VWS V14.00,2013-04-15 06:55:00,
2013-04-14 21:00:00,69.3,66.9,29.95,NNE,24,0.0,2.0,92,0.00,,---,0.25,VWS V14.00,2013-04-15 07:00:00,
2013-04-14 21:05:00,69.4,67.3,29.95,NNE,24,0.0,0.0,93,0.00,,---,0.25,VWS V14.00,2013-04-15 07:05:00,
2013-04-14 21:41:00,69.4,67.3,29.96,NNE,24,0.0,0.0,93,0.00,,---,0.25,VWS V14.00,2013-04-15 07:41:00,
2013-04-14 21:42:00,69.5,67.4,29.96,NNE,24,0.0,0.0,93,0.00,,---,0.25,VWS V14.00,2013-04-15 07:42:00,
2013-04-14 21:47:00,69.5,67.4,29.97,NNE,24,0.0,0.0,93,0.00,,---,0.25,VWS V14.00,2013-04-15 07:47:00,
2013-04-14 21:48:00,69.5,67.4,29.97,NNE,24,0.0,0.0,93,0.00,,---,0.25,VWS V14.00,2013-04-15 07:48:00,
2013-04-14 21:51:00,69.5,67.4,29.96,NNE,24,0.0,0.0,93,0.00,,---,0.25,VWS V14.00,2013-04-15 07:51:00,
2013-04-14 21:56:00,69.5,67.4,29.97,NNE,24,0.0,0.0,93,0.00,,---,0.26,VWS V14.00,2013-04-15 07:56:00,
2013-04-14 22:01:00,69.6,67.5,29.97,NNE,24,0.0,0.0,93,0.00,,---,0.26,VWS V14.00,2013-04-15 08:01:00,
2013-04-14 22:06:00,69.6,67.5,29.97,NNE,24,0.0,0.0,93,0.00,,---,0.26,VWS V14.00,2013-04-15 08:06:00,
2013-04-14 22:11:00,69.7,67.6,29.97,NNE,24,0.0,1.0,93,0.00,,---,0.26,VWS V14.00,2013-04-15 08:11:00,
2013-04-14 22:16:00,69.8,67.7,29.97,NNE,24,0.0,1.0,93,0.00,,---,0.26,VWS V14.00,2013-04-15 08:16:00,
2013-04-14 22:21:00,69.9,67.8,29.97,NNE,24,0.0,1.0,93,0.00,,---,0.26,VWS V14.00,2013-04-15 08:21:00,
2013-04-14 22:26:00,69.9,67.8,29.97,NNE,24,0.0,1.0,93,0.00,,---,0.26,VWS V14.00,2013-04-15 08:26:00,
2013-04-14 22:31:00,69.9,67.8,29.97,NNE,24,0.0,1.0,93,0.00,,---,0.26,VWS V14.00,2013-04-15 08:31:00,
2013-04-14 22:35:00,69.9,67.8,29.97,NNE,24,0.0,0.0,93,0.00,,---,0.27,VWS V14.00,2013-04-15 08:35:00,
2013-04-14 22:40:00,69.9,67.8,29.97,NNE,24,0.0,0.0,93,0.00,,---,0.27,VWS V14.00,2013-04-15 08:40:00,
2013-04-14 22:45:00,70.0,67.9,29.97,NNE,24,0.0,0.0,93,0.00,,---,0.27,VWS V14.00,2013-04-15 08:45:00,
2013-04-14 22:50:00,70.0,67.9,29.97,NNE,24,0.0,0.0,93,0.00,,---,0.27,VWS V14.00,2013-04-15 08:50:00,
2013-04-14 22:55:00,70.0,67.9,29.97,NNE,24,0.0,0.0,93,0.00,,---,0.27,VWS V14.00,2013-04-15 08:55:00,
2013-04-14 23:00:00,70.0,67.9,29.97,NNE,24,0.0,0.0,93,0.00,,---,0.27,VWS V14.00,2013-04-15 09:00:00,
2013-04-14 23:05:00,70.0,67.9,29.97,NNE,24,0.0,0.0,93,0.00,,---,0.27,VWS V14.00,2013-04-15 09:05:00,
2013-04-14 23:10:00,70.0,67.9,29.97,NNE,24,0.0,1.0,93,0.00,,---,0.27,VWS V14.00,2013-04-15 09:10:00,
2013-04-14 23:15:00,70.0,67.9,29.97,NNE,24,0.0,1.0,93,0.00,,---,0.27,VWS V14.00,2013-04-15 09:15:00,
2013-04-14 23:20:00,70.0,67.9,29.97,NNE,24,0.0,1.0,93,0.00,,---,0.27,VWS V14.00,2013-04-15 09:20:00,
2013-04-14 23:25:00,70.0,67.9,29.97,NNE,24,0.0,1.0,93,0.00,,---,0.27,VWS V14.00,2013-04-15 09:25:00,
2013-04-14 23:30:00,69.9,67.8,29.96,NNE,24,0.0,1.0,93,0.00,,---,0.27,VWS V14.00,2013-04-15 09:30:00,
2013-04-14 23:35:00,70.0,67.9,29.96,NNE,24,0.0,0.0,93,0.00,,---,0.27,VWS V14.00,2013-04-15 09:35:00,
2013-04-14 23:40:00,70.0,67.9,29.96,NNE,24,0.0,1.0,93,0.00,,---,0.27,VWS V14.00,2013-04-15 09:40:00,
2013-04-14 23:45:00,70.0,67.9,29.95,NNE,24,0.0,1.0,93,0.00,,---,0.27,VWS V14.00,2013-04-15 09:45:00,
2013-04-14 23:50:00,70.0,67.9,29.95,NNE,24,1.0,3.0,93,0.00,,---,0.27,VWS V14.00,2013-04-15 09:50:00,
2013-04-14 23:55:00,69.8,67.7,29.96,NNE,24,1.0,4.0,93,0.00,,---,0.27,VWS V14.00,2013-04-15 09:55:00,